Vertical_Velocity
-4 27 4 9 -5 27 -11 11 8 3 -5 -5 3 -0 1 2 1 -0 -0 -2 -2 -2 -3 -4 -2 -3 -1 -2 -3 -1 -2 -1 -0 -2 -2 -0 0 1 1 -0 1 -1 -1 5 -2 0 5 -3 -3 3 -2 2 4 7
1 19 14 -14 -41 10 4 -3 2 -0 -7 -4 3 -0 1 1 1 1 -1 -1 -3 -4 -3 -5 -2 -3 -3 -2 -2 -2 -2 -2 -1 0 0 -2 2 0 -4 8 -3 9 -1 -4 -1 8 0 1 2 -4 -0 3 2 -1
-2 15 15 2 3 29 15 7 3 -2 -13 -4 4 1 2 2 -1 1 -0 -1 -1 -1 -5 -4 -3 -3 -4 -2 -2 -2 -2 -2 -2 -2 -2 -0 1 -4 -0 1 -7 2 3 2 -1 4 2 1 -1 1 -0 -4 -2 -2
-6 9 12 5 6 13 14 6 5 -5 -17 -1 6 1 1 2 0 1 -0 -1 -1 -0 -4 -4 -1 -5 -1 -2 -2 -1 -1 -1 -1 1 -2 1 -3 -2 0 0 2 -5 -5 0 3 -3 -5 -2 2 -0 8 5 -1 3
-6 9 13 8 0 16 15 3 0 4 -5 -1 5 1 0 2 2 -0 -0 -3 -2 -1 -3 -3 -1 -2 2 -1 -3 -2 -2 -2 -2 0 0 0 1 -4 -0 -0 0 1 -1 -2 6 0 2 -1 -2 16 -2 3 1 2
-7 9 10 7 6 14 12 6 3 -1 -11 3 3 1 1 0 4 -0 -3 -2 -2 -0 0 -1 1 -3 -0 -0 -3 -2 -2 -1 -2 -0 0 -1 -1 -2 -4 0 -0 5 0 -2 -1 -1 1 -1 -3 -3 -2 1 0 -1
1 10 11 3 5 18 11 12 15 -3 -1 4 1 3 1 0 2 1 -6 -2 -0 -1 -0 -1 1 -5 -2 -1 -2 -3 -1 -1 -1 -2 -1 -1 -1 -4 -3 -4 0 0 3 5 6 2 0 2 1 2 2 1 1 2
-4 9 14 7 5 15 17 8 8 -5 2 3 0 4 -1 2 2 3 -8 -1 1 -0 -1 1 -2 -3 -1 -1 0 -1 -1 -1 -2 -2 -1 -2 -0 -1 1 7 -0 3 -1 0 -5 5 3 2 2 0 1 0 -0 -1
2 12 10 5 12 12 8 9 -4 1 3 0 3 7 4 1 2 0 -7 1 0 1 -2 1 0 -2 -3 -2 -1 0 -1 -1 -3 -1 -2 -2 2 0 -3 3 -2 -11 -1 2 -5 -4 2 2 4 4 2 3 3 1
11 5 9 10 12 2 14 3 -4 -1 1 6 7 6 -2 -1 4 0 -6 2 1 -1 -1 0 -1 -1 -3 -1 -2 -1 -1 -2 -5 -1 -1 -3 -1 0 -1 -6 -0 -1 -9 -7 -1 -9 -4 1 -1 -2 -2 -1 1 1
7 6 10 2 11 9 3 8 -9 -2 7 0 2 2 -1 5 2 -1 -6 3 -1 -0 -1 1 -1 1 -2 -0 -2 -2 -0 -0 -4 -0 -2 1 -0 -1 -3 0 1 6 3 1 -0 0 -2 -5 -2 -2 -2 -1 -1 -1
3 11 15 3 4 4 13 2 -9 -4 3 7 4 -6 6 1 -2 -8 -4 -1 -1 -0 -2 -1 -1 0 -2 -1 -0 -2 -1 1 -2 -1 -2 1 -3 -1 -2 2 -1 -5 4 0 0 -0 -1 -1 -3 -1 -1 -2 -1 -1
3 4 1 10 5 11 7 8 7 2 10 2 6 1 -1 -4 1 -6 -4 -2 -3 -2 -3 -0 -0 -2 -2 -1 -1 -2 -1 -0 -1 -3 -1 -5 -0 -2 -3 -2 4 -6 -3 -3 -2 -2 0 -1 1 0 -1 -1 -1 0
8 4 -1 9 11 13 13 -5 -0 8 6 7 -10 1 -4 -4 1 -7 -4 -1 1 -0 -2 -2 -1 -3 -2 -1 -2 -1 0 0 -1 1 -3 -2 -1 -2 -3 -3 -1 1 -2 -1 -4 -6 -3 1 1 2 1 -1 -2 -2
3 5 12 14 15 10 8 3 4 7 1 -8 2 0 -6 -4 -1 -3 -2 3 1 -1 -0 -2 -1 -1 -1 -1 -2 -0 0 -2 -2 -2 -1 -2 -3 -3 -1 -1 -2 2 -6 2 -2 -2 -6 -4 1 1 2 1 -0 -0
11 19 20 17 14 11 -5 2 3 -1 -1 9 1 -2 0 -2 -6 -2 -0 3 1 -2 -0 0 -2 -1 -1 -2 -1 0 -1 -3 -2 1 -0 -2 -0 -1 -4 1 -1 -3 -0 -5 -1 -0 0 -0 -2 2 0 3 1 0
12 8 7 3 6 0 7 3 4 11 9 -2 -4 7 -6 -5 -1 -5 -1 1 0 -2 -0 -2 -3 -1 -2 -1 -2 -3 -4 -0 0 -1 -1 -3 -4 -2 -4 2 -3 -1 0 -1 -1 1 -1 1 -3 -2 3 2 -0 0
24 -3 -3 24 0 -1 2 2 8 -0 -3 -2 0 -2 -5 -3 0 0 3 1 1 -0 1 -1 -1 -3 -2 -2 -3 -1 -2 -1 -1 -2 -1 -1 -4 -4 -2 -3 1 -3 1 -3 0 -2 1 -2 0 -0 1 -0 2 -0
-7 6 24 13 6 -4 1 8 -3 -4 -1 4 -7 -6 -2 -1 -3 -1 -1 -4 -1 1 -0 -2 -4 -4 -0 -1 -2 -2 1 -0 -2 -3 -1 -0 0 -6 -3 -2 -1 -1 1 -0 -2 -1 -0 0 2 2 1 1 3 -0
39 22 7 2 9 -1 -7 -1 4 5 -2 -10 0 -3 -1 1 1 -2 -1 -0 2 0 -1 -8 -1 0 -1 -1 -1 0 1 -1 -3 -4 -2 -1 -2 -3 -1 -1 -1 -2 3 2 1 1 -1 2 3 2 -1 1 2 4
9 -1 4 5 -1 -2 3 -2 -6 -5 -3 -4 -4 -4 -1 -0 -2 -1 2 0 -2 -1 -4 -1 1 -2 -1 1 0 -1 1 -2 -1 -2 -3 -3 -3 -7 -3 -2 1 -2 2 2 4 1 -1 3 3 2 -0 -0 -1 0
-8 10 1 6 1 -0 2 -4 -4 -2 -4 -5 -4 2 2 -1 1 2 1 -6 -4 5 -3 -0 -1 -1 -0 -1 0 1 -1 -2 -2 -3 -1 -4 -1 -2 -2 -2 1 1 0 1 8 1 0 3 4 2 0 0 1 -0
2 -10 -13 -14 -7 -1 -1 0 -1 -2 -5 -0 3 2 -2 -0 -1 0 -5 -5 1 -2 -2 1 0 -0 -2 -0 2 0 -2 -2 -0 -3 -1 -3 -2 -4 -1 -0 2 4 2 -5 10 -0 1 4 3 3 1 -0 -2 -1
1 1 9 3 2 -6 -5 -2 -2 -0 1 -1 -2 -1 -1 -1 -2 -3 -5 1 -2 -2 -2 -1 -1 -2 -3 0 2 -0 -1 -1 -1 -2 -1 -1 -2 0 -1 4 1 4 -1 -2 6 2 5 3 3 2 0 -2 -0 1
8 -3 -2 -2 -4 -1 1 1 -1 -0 -5 -4 -2 -1 -2 -2 0 -2 -3 -0 -4 -3 -1 -0 -1 -2 -1 1 -1 1 1 1 -1 0 0 -2 -1 1 1 2 -1 0 4 4 6 1 -0 0 -2 1 3 1 2 1
-6 -2 -0 -1 2 2 -3 -5 -5 -3 1 1 -1 -0 -1 0 -2 -3 -4 -2 -2 -1 -1 -2 -2 -2 -0 -0 -0 1 2 -1 -0 -2 -1 -1 2 2 0 3 4 -2 -3 -1 2 -4 -6 -0 1 0 -0 -1 -2 -0
-4 -1 -0 -1 -7 -8 -6 -1 1 -1 1 -0 -1 -1 -2 -4 -3 -3 -1 -2 -4 -2 -1 -1 -2 -4 -5 -2 3 2 -1 -1 -1 -3 -1 0 -0 3 -3 5 2 -1 -1 1 3 1 0 3 3 2 1 -2 -1 1
-5 -7 -3 -4 -2 1 2 1 1 0 -1 -2 -2 -3 -4 -4 -3 -1 -2 -3 -5 -4 -2 0 -1 -1 -4 -3 -0 0 2 1 1 -2 -1 1 5 -0 -1 6 -0 -1 -0 2 2 2 2 1 1 0 1 1 2 1
-1 -1 0 1 1 1 -0 -1 -2 -2 -4 -4 -4 -2 -4 -0 3 -1 -5 -2 -1 -2 -0 -1 -0 -4 -1 1 -3 2 -4 0 -1 -0 -2 -1 7 7 3 1 -3 -1 0 2 2 3 3 3 1 1 1 1 1 1
0 1 0 0 -1 -3 -4 -4 -4 -4 -4 -3 -3 -2 -2 0 -2 -3 -1 -0 -1 -1 -2 -3 -0 -3 2 -0 3 -1 0 2 1 -0 -1 3 -2 4 0 -1 -2 -1 0 0 -0 2 2 2 1 1 1 1 1 1
-2 -2 -3 -4 -4 -3 -3 -3 -3 -3 -3 -4 -4 -4 -2 -7 4 5 2 -2 -2 -2 -0 -0 -1 0 2 -1 3 3 0 0 1 1 2 -0 -4 -0 -1 -1 -1 -0 0 -1 0 1 1 1 2 2 1 1 1 0
-2 -3 -4 -3 -2 -2 -2 -3 -3 -1 0 -0 -0 -2 -4 -7 -2 -6 1 -1 -1 1 -2 1 2 -1 -1 2 -1 -1 3 -0 -1 -0 1 0 -1 -2 -1 1 0 0 -1 -1 -1 1 2 3 3 1 -1 -1 0 -0
-0 -1 1 0 -0 -0 -0 -2 -1 -0 -1 -2 -2 -2 -3 -5 -2 -1 0 -0 0 0 -2 -1 1 -0 -0 0 -0 -0 -2 -0 0 0 -2 -2 -1 -1 0 2 1 -1 -1 -1 0 1 1 1 0 -1 0 0 0 1
Height
2921 2928 2941 2956 2968 2975 2983 2991 2997 3003 3012 3020 3027 3031 3033 3035 3035 3034 3032 3029 3027 3024 3021 3018 3015 3011 3009 3011 3012 3014 3015 3015 3015 3014 3015 3015 3017 3016 3015 3014 3014 3015 3015 3015 3014 3013 3014 3012 3012 3013 3012 3010 3008 3008
2914 2920 2931 2940 2945 2967 2977 2983 2992 2998 3007 3015 3022 3026 3030 3032 3032 3032 3030 3029 3026 3025 3023 3019 3014 3012 3011 3010 3012 3013 3014 3014 3014 3015 3015 3015 3016 3016 3016 3017 3016 3016 3015 3015 3017 3015 3013 3013 3012 3012 3011 3011 3010 3009
2905 2913 2923 2936 2948 2960 2969 2977 2984 2991 3001 3011 3018 3023 3026 3028 3029 3030 3028 3027 3026 3024 3022 3019 3018 3015 3013 3012 3012 3014 3014 3014 3015 3015 3015 3015 3015 3016 3018 3016 3015 3016 3015 3014 3014 3014 3013 3013 3012 3012 3012 3012 3012 3012
2900 2906 2914 2928 2939 2952 2963 2971 2978 2986 2996 3006 3014 3019 3023 3025 3027 3026 3026 3026 3024 3024 3023 3022 3019 3017 3016 3014 3014 3014 3014 3014 3014 3014 3014 3014 3015 3015 3015 3015 3014 3015 3015 3016 3015 3012 3012 3012 3013 3012 3012 3012 3013 3013
2891 2898 2909 2921 2935 2945 2956 2964 2972 2980 2992 3001 3010 3015 3019 3022 3024 3024 3025 3024 3023 3025 3023 3021 3020 3018 3016 3016 3014 3014 3013 3013 3013 3012 3013 3014 3014 3015 3014 3012 3011 3013 3013 3014 3012 3012 3012 3011 3011 3010 3012 3011 3012 3013
2884 2894 2902 2915 2927 2940 2950 2958 2966 2977 2987 2998 3006 3012 3016 3019 3021 3021 3022 3024 3022 3021 3021 3020 3020 3018 3017 3015 3014 3013 3012 3011 3011 3010 3011 3011 3013 3014 3014 3014 3013 3011 3010 3010 3011 3011 3010 3010 3010 3010 3010 3010 3011 3012
2877 2886 2897 2909 2922 2933 2944 2953 2962 2971 2984 2995 3001 3008 3012 3016 3017 3019 3021 3023 3021 3020 3019 3019 3018 3018 3015 3014 3012 3011 3010 3010 3009 3009 3009 3009 3010 3010 3009 3010 3009 3009 3009 3009 3008 3008 3008 3008 3008 3008 3008 3008 3008 3008
2869 2882 2891 2904 2916 2928 2938 2947 2956 2967 2980 2990 2997 3004 3008 3012 3014 3016 3017 3020 3019 3019 3018 3018 3017 3016 3014 3012 3011 3009 3008 3008 3007 3007 3007 3007 3007 3007 3007 3007 3005 3005 3006 3005 3005 3006 3005 3005 3005 3005 3005 3005 3004 3004
2866 2877 2886 2898 2912 2924 2933 2942 2952 2967 2977 2985 2995 3001 3004 3009 3011 3012 3015 3017 3017 3019 3016 3016 3015 3014 3013 3011 3009 3008 3006 3006 3007 3006 3005 3006 3005 3004 3002 3002 3003 3003 3003 3002 3002 3002 3002 3002 3002 3001 3001 3000 2999 2998
2861 2871 2880 2893 2907 2918 2928 2937 2950 2963 2973 2983 2991 2996 3000 3006 3007 3011 3012 3014 3013 3013 3012 3013 3012 3012 3012 3009 3007 3007 3005 3004 3004 3006 3004 3003 3002 3001 3000 2999 3000 2999 2998 2998 2998 2998 2999 2998 2998 2997 2996 2994 2992 2991
2856 2866 2875 2888 2902 2913 2923 2932 2944 2959 2969 2977 2984 2991 2998 3002 3005 3008 3011 3010 3009 3009 3009 3009 3009 3009 3008 3007 3005 3005 3003 3002 3003 3006 3004 3002 2999 2998 2998 2998 2996 2995 2994 2993 2992 2991 2991 2992 2991 2990 2989 2988 2987 2985
2851 2861 2873 2885 2897 2909 2919 2928 2940 2953 2966 2976 2984 2993 2996 3000 3002 3005 3005 3005 3003 3004 3004 3005 3006 3005 3005 3004 3003 3003 3003 3002 3001 3002 3003 2999 2995 2996 2996 2995 2993 2993 2992 2990 2988 2986 2985 2985 2984 2984 2983 2982 2981 2980
2846 2856 2868 2882 2895 2906 2917 2928 2945 2959 2968 2976 2983 2988 2995 2996 2995 2995 2995 2995 2997 2998 3001 3002 3003 3003 3001 3002 3001 3001 3000 3000 2999 3000 2999 2995 2993 2993 2992 2992 2990 2988 2987 2987 2985 2983 2982 2980 2979 2978 2978 2978 2977 2977
2842 2853 2865 2880 2892 2903 2913 2927 2944 2956 2966 2973 2980 2984 2987 2986 2985 2986 2989 2993 2994 2996 2997 2999 2999 3000 2999 2999 2999 2998 2999 2998 2997 2996 2993 2991 2991 2990 2989 2987 2985 2983 2981 2980 2978 2977 2977 2976 2975 2974 2974 2974 2974 2973
2838 2851 2865 2879 2890 2900 2913 2930 2942 2954 2962 2971 2977 2977 2976 2979 2981 2984 2987 2990 2991 2993 2995 2996 2996 2997 2996 2996 2996 2996 2995 2992 2991 2988 2988 2988 2987 2986 2985 2982 2979 2977 2975 2973 2971 2970 2970 2971 2970 2970 2970 2970 2970 2969
2837 2851 2866 2877 2888 2901 2914 2929 2941 2951 2961 2966 2968 2968 2971 2975 2978 2981 2984 2986 2989 2991 2992 2992 2992 2992 2992 2993 2993 2991 2990 2987 2985 2984 2984 2983 2982 2980 2978 2976 2973 2971 2969 2966 2964 2962 2961 2962 2963 2963 2964 2965 2964 2964
2838 2851 2863 2875 2886 2901 2918 2931 2942 2953 2958 2958 2962 2965 2968 2972 2976 2979 2982 2984 2986 2988 2989 2989 2990 2989 2990 2989 2987 2986 2984 2984 2982 2981 2979 2977 2975 2974 2972 2969 2967 2965 2962 2960 2958 2956 2954 2953 2954 2956 2958 2959 2959 2959
2840 2849 2863 2876 2888 2902 2917 2929 2941 2944 2949 2954 2959 2963 2968 2971 2974 2977 2979 2981 2983 2984 2985 2986 2986 2986 2985 2983 2982 2981 2979 2978 2977 2976 2974 2970 2968 2966 2964 2962 2960 2957 2955 2953 2951 2949 2947 2946 2947 2948 2950 2952 2953 2953
2839 2852 2868 2882 2894 2905 2919 2930 2937 2941 2947 2952 2957 2962 2965 2968 2971 2974 2976 2977 2979 2980 2981 2980 2981 2980 2979 2978 2976 2975 2974 2972 2970 2969 2967 2964 2961 2960 2958 2954 2952 2950 2948 2946 2945 2943 2942 2941 2941 2943 2944 2945 2947 2947
2851 2863 2874 2887 2898 2906 2917 2929 2934 2939 2944 2951 2956 2959 2963 2966 2968 2970 2971 2973 2974 2975 2975 2975 2976 2975 2973 2971 2970 2969 2967 2965 2963 2962 2961 2958 2955 2953 2951 2948 2944 2943 2941 2940 2939 2937 2937 2937 2937 2938 2939 2940 2941 2942
2855 2868 2879 2888 2899 2911 2916 2924 2933 2940 2944 2949 2953 2956 2960 2962 2964 2966 2967 2968 2969 2968 2970 2971 2971 2968 2966 2965 2964 2962 2961 2959 2957 2955 2953 2952 2950 2947 2944 2941 2938 2936 2935 2936 2935 2933 2933 2934 2934 2935 2935 2936 2936 2936
2857 2872 2883 2897 2905 2912 2919 2926 2933 2938 2944 2947 2951 2954 2956 2958 2960 2962 2963 2962 2962 2965 2964 2964 2963 2961 2960 2959 2958 2957 2955 2954 2952 2950 2949 2947 2945 2942 2937 2934 2932 2930 2930 2932 2931 2929 2930 2931 2931 2932 2932 2931 2930 2930
2867 2881 2893 2902 2911 2917 2923 2928 2932 2937 2941 2946 2949 2950 2952 2954 2956 2958 2958 2958 2958 2958 2957 2957 2956 2955 2954 2953 2952 2951 2950 2949 2948 2947 2946 2945 2942 2939 2933 2930 2928 2926 2926 2928 2927 2927 2927 2928 2928 2928 2927 2927 2927 2928
2885 2893 2900 2906 2911 2916 2922 2925 2930 2936 2938 2941 2945 2947 2949 2950 2952 2952 2952 2952 2952 2952 2951 2950 2950 2949 2949 2948 2947 2946 2946 2946 2946 2945 2944 2943 2940 2937 2933 2929 2926 2924 2923 2924 2924 2924 2924 2924 2924 2923 2924 2924 2925 2925
2894 2900 2905 2907 2911 2916 2919 2923 2927 2932 2934 2938 2942 2944 2944 2946 2947 2947 2946 2947 2946 2947 2946 2946 2945 2944 2944 2943 2943 2943 2943 2944 2943 2943 2942 2941 2940 2937 2934 2930 2927 2923 2922 2921 2921 2920 2920 2920 2921 2922 2922 2923 2923 2923
2893 2899 2903 2905 2908 2913 2916 2922 2926 2930 2934 2937 2939 2940 2941 2942 2942 2941 2941 2942 2942 2942 2942 2941 2941 2940 2939 2938 2938 2939 2940 2940 2940 2939 2940 2939 2938 2934 2933 2931 2927 2925 2922 2920 2918 2917 2918 2919 2919 2919 2919 2919 2919 2918
2894 2897 2901 2904 2908 2913 2919 2923 2926 2929 2932 2933 2934 2936 2937 2937 2936 2937 2938 2939 2939 2939 2938 2938 2937 2936 2935 2934 2934 2934 2934 2935 2935 2936 2936 2936 2935 2932 2930 2928 2926 2925 2922 2920 2918 2918 2917 2917 2917 2917 2917 2916 2915 2914
2895 2899 2904 2908 2911 2915 2918 2921 2923 2925 2927 2929 2931 2931 2932 2933 2934 2935 2935 2935 2934 2934 2933 2932 2931 2930 2930 2929 2929 2929 2929 2930 2930 2930 2931 2932 2931 2929 2927 2926 2924 2923 2921 2919 2917 2916 2914 2914 2914 2914 2913 2912 2911 2910
2898 2901 2905 2908 2911 2914 2916 2918 2920 2922 2924 2926 2928 2928 2929 2930 2931 2931 2931 2930 2929 2928 2926 2925 2924 2922 2922 2922 2922 2922 2922 2923 2923 2924 2924 2925 2926 2926 2924 2922 2921 2919 2918 2916 2915 2913 2912 2910 2909 2909 2908 2908 2907 2905
2899 2902 2905 2907 2909 2911 2914 2917 2918 2920 2922 2924 2925 2926 2926 2927 2927 2927 2925 2924 2922 2920 2918 2917 2915 2914 2914 2913 2914 2914 2914 2915 2915 2917 2917 2917 2917 2919 2918 2918 2917 2915 2914 2913 2912 2911 2909 2908 2907 2906 2905 2904 2902 2900
2900 2902 2905 2907 2909 2911 2914 2916 2918 2920 2921 2922 2923 2923 2922 2922 2922 2920 2917 2914 2912 2910 2909 2907 2906 2905 2905 2904 2904 2904 2905 2905 2905 2907 2907 2908 2910 2911 2911 2911 2911 2910 2910 2909 2908 2907 2906 2905 2904 2903 2902 2900 2898 2897
2900 2903 2905 2907 2910 2913 2914 2916 2918 2919 2920 2919 2918 2917 2916 2914 2913 2912 2910 2908 2905 2903 2901 2900 2898 2896 2895 2894 2893 2893 2893 2895 2896 2896 2897 2899 2900 2902 2903 2903 2904 2904 2905 2904 2904 2903 2903 2902 2900 2899 2898 2896 2895 2893
2902 2905 2907 2909 2911 2913 2915 2916 2917 2917 2916 2916 2915 2913 2911 2909 2907 2906 2903 2901 2899 2897 2895 2893 2891 2889 2886 2884 2883 2882 2882 2882 2883 2885 2887 2889 2891 2893 2894 2894 2895 2897 2898 2898 2899 2899 2898 2897 2897 2895 2894 2893 2891 2890